Location: Neu-Ulm
(48.3873°N, 10.0192°E)
Time: 11:56:31
(UTC+02:00)

ISS - Visible Passes

Search period start: 20 May 2018 00:00
Search period end: 30 May 2018 00:00
Orbit: 402 x 407 km, 51.6° (Epoch: 20 May)

Date Brightness Start Highest point End Pass type
(mag) Time Alt. Az. Time Alt. Az. Time Alt. Az.
20 May -1.7 00:06:25 18° ENE 00:06:25 18° ENE 00:07:21 10° ENE visible
20 May -2.8 01:38:58 22° WNW 01:40:43 46° N 01:43:53 10° ENE visible
20 May -3.3 03:14:15 10° WNW 03:17:30 61° NNE 03:20:45 10° E visible
20 May -3.2 04:50:51 10° WNW 04:53:54 36° SSW 04:56:56 10° SE visible
20 May -3.7 23:08:47 10° SW 23:11:57 48° SSE 23:15:07 10° ENE visible
21 May -3.1 00:45:13 10° W 00:48:26 53° NNW 00:51:40 10° ENE visible
21 May -2.9 02:22:03 10° WNW 02:25:14 50° N 02:28:26 10° E visible
21 May -3.9 03:58:34 10° WNW 04:01:48 58° SSW 04:05:01 10° SE visible
21 May -3.0 22:16:57 10° SSW 22:19:51 30° SE 22:22:46 10° E visible
21 May -3.6 23:52:55 10° WSW 23:56:11 68° NNW 23:59:27 10° ENE visible
22 May -2.7 01:29:46 10° WNW 01:32:56 45° N 01:36:07 10° ENE visible
22 May -4.0 03:06:21 10° WNW 03:09:38 88° SSW 03:12:54 10° ESE visible
22 May -2.4 04:43:22 10° W 04:45:46 19° SW 04:48:08 10° S visible
22 May -3.9 23:00:40 10° WSW 23:03:57 87° SSE 23:07:13 10° ENE visible
23 May -2.7 00:37:28 10° WNW 00:40:37 45° N 00:43:47 10° ENE visible
23 May -3.5 02:14:08 10° WNW 02:17:23 67° NNE 02:20:39 10° E visible
23 May -3.1 03:50:47 10° W 03:53:43 30° SW 03:56:38 10° SSE visible
23 May -3.8 22:08:32 10° SW 22:11:45 57° SSE 22:14:58 10° ENE visible
23 May -2.9 23:45:06 10° W 23:48:18 50° N 23:51:31 10° ENE visible
24 May -3.1 01:21:53 10° WNW 01:25:06 53° N 01:27:49 14° E visible
24 May -2.6 02:58:25 10° WNW 03:00:12 28° W 03:00:12 28° W visible
24 May -3.3 22:52:45 10° W 22:56:00 61° NNW 22:59:15 10° ENE visible
25 May -2.8 00:29:36 10° WNW 00:32:46 46° N 00:35:35 12° ENE visible
25 May -2.7 02:06:08 10° WNW 02:08:10 34° WNW 02:08:10 34° WNW visible
25 May -3.8 22:00:26 10° WSW 22:03:42 83° NNW 22:07:00 10° ENE visible
25 May -2.7 23:37:15 10° WNW 23:40:25 45° N 23:43:35 10° ENE visible
26 May -3.7 01:13:53 10° WNW 01:17:03 73° N 01:17:03 73° N visible
26 May -2.8 22:44:52 10° W 22:48:03 48° N 22:51:15 10° ENE visible
27 May -3.2 00:21:36 10° WNW 00:24:51 57° NNE 00:26:11 30° E visible
27 May -1.4 01:58:10 10° WNW 01:58:47 14° W 01:58:47 14° W visible
27 May -3.1 21:52:28 10° W 21:55:42 56° NNW 21:58:56 10° ENE visible
27 May -2.9 23:29:18 10° WNW 23:32:29 48° N 23:35:24 12° E visible
28 May -2.9 01:05:50 10° WNW 01:08:01 38° W 01:08:01 38° W visible
28 May -2.7 22:36:56 10° WNW 22:40:06 45° N 22:43:16 10° ENE visible
29 May -3.9 00:13:31 10° WNW 00:16:48 83° NNE 00:17:18 61° E visible
29 May -2.7 21:44:31 10° W 21:47:41 46° N 21:50:52 10° ENE visible
29 May -3.4 23:21:13 10° WNW 23:24:28 62° NNE 23:26:37 19° E visible
